Погода в Ключи

Погода в Ключи : погода сейчас, прогноз погоды и архив. Всё, что Вы хотите узнать о погоде в Ключи!

Поиск расширенной информации на нашем сайте:

Другие новости

Новости СМИ2

Главная страница сайта

Новости сайта

02.10.2013

Напоминаем, что на нашем новом сайте вы можете получить высокодетализированные прогнозы погоды по пунктам России, СНГ и мира (включающие важные для авиации метеовеличины, такие как направление и скорость ветра, видимость, явления погоды, количество и форма облачности, нижняя и верхняя граница облачности), а также ознакомиться с разнообразными материалами по авиационной метеорологии и подборкой полезных ссылок на эту тему.

Сайт Метеоцентр.Азия посвящён разработке технологий оптимизации авиаметеорологического обслуживания, включая проектирование и перспективное создание нескольких автоматизированных авиаметеорологических систем:
- система выпуска высокодетальных прогностических карт явлений погоды для нижнего воздушного пространства по России и ближнему зарубежью;
- система верификации прогнозов TAF (выпускаемых синоптиками официальных АМСГ РФ и ближнего зарубежья) и AUTOTAF (выпускаемых сайтом Метеоцентр.Азия) - выявление ошибок, онлайн-сопоставление с фактической погодой METAR, автоматическое внесение коррективов в прогнозы при резком отклонении фактической погоды от прогноза, подсчёт оправдываемости прогнозов по элементам и в целом;
- система обработки, анализа и отображения авиаметеорологической информации для применения провайдерами метеорологической информации.

Рекомендуем: 24 И 48 форма Ян-ши тайдзицюань.

Погода в Ключи - сегодня

Время (UTC), дата Ветер
(°,м/с) 
Видим.   Явления Облачность Т
(°С)
Тd
(°С)
f(%) Тe
(°С)
Pmin
(гПа)
dP
(гПа)
Po
(мм)
O2
(г/м3)
Тmin Tmax R s Состояние
почвы
18 27.04.17 310 (СЗ) 20000 м    4/0 верхняя 
[Ci sp]
+13.8 +5.2 56 +14  1018.1  1.3  751  287           
21 27.04.17 310 (СЗ) 20000 м    4/0 верхняя 
[Ci sp]
+12.1 +6.8 70 +12  1019.5  1.3  752  289           
00 28.04.17 320 (СЗ) 20000 м    9/0 средняя 
[Ac As]
+10.7 +7.5 81 +10  1020.9  1.3  753  291  +10.7         
03 28.04.17 300 (СЗ) 20000 м    9/0 средняя 
[Ac As]
+12.5 +7 69 +11  1021.4  0.6  753  289  +10.6         
06 28.04.17 300 (СЗ) 7{10}  20000 м    9/0 средняя 
[Ac As]
+15.7 +5 49 +15  1021.5  0.2  753  286           
09 28.04.17 320 (СЗ) 7-10{11}  20000 м    9/0 средняя, верхняя 
[Ac As|Cs]
+16.6 +4.2 44 +16  1021  -0.3  753  285           
12 28.04.17 310 (СЗ) 6{10}  20000 м    9/1 600 м средняя 
[Cu hum|As trans]
+14.2 +4.5 52 +13  1021.8  0.6  754  288    +16.7       
15 28.04.17 310 (СЗ) 20000 м    9/0 средняя, верхняя 
[Ac As|Ci sp]
+10.3 +4.9 69 +9  1023.5  1.4  755  292           
18 28.04.17 290 (З) 20000 м    6/0 верхняя 
[Ci sp]
+7.8 +4.2 78 +8  1024.5  0.9  755  295           
21 28.04.17 250 (З) 20000 м    10/0 средняя 
[Ac As]
+8.4 +4.6 77 +8  1024.6  0.1  755  295           
00 29.04.17 240 (ЮЗ) 20000 м    9/9 600 м 
[Sc]
+8.3 +4.3 76 +8  1024.9  0.3  756  295  +7.5         
03 29.04.17 250 (З) 20000 м    9/0 средняя, верхняя 
[Ac As|Ci sp]
+12 +2.9 54 +12  1024.7  756  291           
06 29.04.17 250 (З) 5{10}  20000 м    9/0 средняя 
[Ac As]
+14.7 +1.5 41 +14  1023.9  -0.6  755  288           
09 29.04.17 230 (ЮЗ) 4{10}  20000 м    10/0 средняя 
[Ac und]
+15.3 -0.2 35 +15  1022.1  -1.8  754  288           
12 29.04.17 230 (ЮЗ) 3{10}  20000 м    10/0 средняя 
[Ac und]
+15 +0.1 36 +15  1021.4  -0.7  753  288    +15.7       
15 29.04.17 190 (Ю) 20000 м    9/0 средняя 
[Ac As]
+11.7 +0.9 47 +12  1020.8  -0.8  753  291           
18 29.04.17 230 (ЮЗ) 20000 м    3/0 средняя 
[Ac trans]
+11.5 -0.4 44 +11  1020  -0.8  752  291           
21 29.04.17 240 (ЮЗ) 20000 м    10/0 средняя 
[Ac und]
+11 +1.7 53 +10  1018.1  -1.9  751  290           
00 30.04.17 340 (С) 3{10}  20000 м    10/0 средняя 
[Ac und]
+8.8 +4.1 72 +8  1018.7  0.5  751  293  +8.8         
03 30.04.17 340 (С) 20000 м  слаб. ливневой дождь  10/6 600 м кучево-дожд., средняя 
[Cb cap|Ac und]
+7.6 +5.8 88 +9  1020.3  1.5  752  294  +7.5         
06 30.04.17 340 (С) 20000 м  слаб. ливневой дождь  10/10 300 м кучево-дожд. 
[Cb cap]
+7.6 +3.8 77 +8  1020.5  0.2  752  294           
09 30.04.17 190 (Ю) 20000 м  в посл. час ливневой дождь  10/10 600 м 
[Sc]
+6.6 +3.8 82 +6  1020.2  -0.3  752  295           
12 30.04.17 230 (ЮЗ) 20000 м  гроза без осадков{ливн. осадки}  8/3 600 м кучево-дожд., средняя 
[Cb cap|Ac As]
+9.7 +2.6 61 +9  1020.5  0.4  752  292    +10.2     
15 30.04.17 310 (СЗ) 10-13{16}  20000 м  в посл. час ливневой дождь{гроза}  10/10 600 м кучево-дожд. 
[Cb cap]
+3.7 +2.1 89 1022.9  754  299           
18 30.04.17 320 (СЗ) 9-13{15}  20000 м  слаб. ливневой дождь{гроза}  10/10 600 м кучево-дожд. 
[Cb cap]
+1.5 -0.3 88 -3  1025.8  2.6  756  303           
Время (UTC), дата Ветер
(°,м/с) 
Видим.   Явления Облачность Т
(°С)
Тd
(°С)
f(%) Тe
(°С)
Pmin
(гПа)
dP
(гПа)
Po
(мм)
O2
(г/м3)
Тmin Tmax R s Состояние
почвы

Для получения пояснительной информации подведите курсор к названию столбца.

ПОГОДА в Ключи - архив

Всё, что Вы хотите узнать о погоде в Ключи - удобно и подробно!

Выберите нужную дату (начиная с 1 января 2015* года) и нажмите кнопку "Найти".
Будут отображены архивные сводки погоды по пункту Ключи, начиная с указанной даты.


Отображать данные в формате CSV (для использования в таблицах Excel)


Внимание! Наш архив погоды предназначен исключительно для личного некоммерческого использования в познавательных целях. Если Вам необходимы официальные справки о состоянии погоды (для производственных, юридических, коммерческих и т.п. целей), обращайтесь в органы Росгидромета.

*Примечание: данная дата относится к архиву по метеостанциям СССР (Россия, СНГ, Балтия).
Архив по метеостанциям Зарубежной Европы и Азии (кроме Китая) хранится 10 дней, по другим регионам земного шара (Китай, Африка, Америка, Австралия, Океания) - 1 день.

Ключи - район местоположения метеостанции


Название, широта, долгота, высота метеостанции:
Ключи 52.2°ш. 79.1°д. 143 м над ур. моря [Российская Федерация]

Дополнительная информация

В oтличие oт бoльшинства пoгoдных сайтoв мы публикуем пoдрoбную метеoинфoрмацию в детальнoм прoфессиoнальнoм фoрмате.

Характеристики температуры и влажнoсти вoздуха измеряются на высoте 2 м в тени вдали oт зданий и деревьев.
Скoрoсть ветра измеряется на высoте 10 м (на урoвне рoста челoвека скoрoсть ветра ниже в 1.5-2 раза). Если метеoстанция нахoдится в гoрoде или в лесу, тo скoрoсть ветра занижена на 2-4 м/с пo сравнению с oткрытым местoм. Скoрoсть ветра над акватoриями крупных рек и oзёр, а также на вершинах хoлмoв на 2-5 м/с выше, чем в oбычных услoвиях.
Атмoсфернoе давление в разных тoчках местнoсти мoжет значительнo oтличаться oт давления на метеoстанции, в зависимoсти oт услoвий рельефа (при пoдъёме на 10 м давление пoнижается примернo на 1 мм рт.ст.).